| time (UTC) | temp F | wind direction | speed MPH | gust MPH | rain 1hr in | rain 24hr in | rain mn in | humidity % | barometer mb |
| 20260506173116 | 63 | 199 | 0.0 | 0.0 | 0.00 | 0.38 | 0.37 | 89 | 1007.6 |
| 20260506171524 | 63 | 199 | 0.0 | 0.0 | 0.00 | 0.38 | 0.37 | 90 | 1007.6 |
| 20260506170044 | 63 | 199 | 0.0 | 0.0 | 0.00 | 0.38 | 0.37 | 89 | 1007.5 |
| 20260506164516 | 63 | 215 | 0.0 | 0.0 | 0.00 | 0.38 | 0.37 | 88 | 1007.6 |
| 20260506163050 | 63 | 207 | 0.0 | 1.0 | 0.00 | 0.38 | 0.37 | 87 | 1007.6 |
| 20260506161502 | 63 | 208 | 0.0 | 0.0 | 0.00 | 0.38 | 0.37 | 87 | 1007.7 |
| 20260506160052 | 64 | 207 | 0.0 | 0.0 | 0.00 | 0.38 | 0.37 | 85 | 1007.7 |
| 20260506154514 | 64 | 215 | 0.0 | 0.0 | 0.00 | 0.38 | 0.37 | 86 | 1007.8 |
| 20260506153029 | 64 | 215 | 0.0 | 0.0 | 0.00 | 0.38 | 0.37 | 86 | 1007.7 |
| 20260506151546 | 65 | 215 | 0.0 | 0.0 | 0.00 | 0.38 | 0.37 | 89 | 1007.7 |
| 20260506150029 | 64 | 215 | 0.0 | 1.0 | 0.00 | 0.38 | 0.37 | 89 | 1007.7 |
| 20260506144550 | 63 | 232 | 0.0 | 0.0 | 0.00 | 0.38 | 0.37 | 91 | 1007.8 |
| 20260506143019 | 63 | 196 | 0.0 | 0.0 | 0.00 | 0.38 | 0.37 | 92 | 1007.9 |
| 20260506141542 | 63 | 195 | 0.0 | 1.0 | 0.00 | 0.38 | 0.37 | 94 | 1007.9 |
| 20260506140100 | 62 | 194 | 0.0 | 0.0 | 0.02 | 0.38 | 0.37 | 94 | 1007.9 |
| 20260506134522 | 62 | 194 | 0.0 | 1.0 | 0.07 | 0.38 | 0.37 | 95 | 1007.9 |
| 20260506133037 | 62 | 173 | 0.0 | 0.0 | 0.10 | 0.38 | 0.37 | 95 | 1008.1 |
| 20260506131558 | 62 | 175 | 0.0 | 0.0 | 0.14 | 0.38 | 0.37 | 95 | 1008.4 |
| 20260506130014 | 61 | 175 | 0.0 | 0.0 | 0.33 | 0.36 | 0.35 | 94 | 1008.5 |
| 20260506124527 | 61 | 65 | 0.0 | 1.0 | 0.28 | 0.31 | 0.30 | 93 | 1008.6 |
| 20260506123044 | 61 | 222 | 0.0 | 0.0 | 0.24 | 0.28 | 0.27 | 92 | 1008.5 |
| 20260506121559 | 62 | 238 | 0.0 | 0.0 | 0.20 | 0.24 | 0.23 | 90 | 1008.5 |
| 20260506120016 | 63 | 213 | 0.0 | 0.0 | 0.00 | 0.03 | 0.02 | 86 | 1008.6 |
| 20260506114526 | 63 | 213 | 0.0 | 5.0 | 0.00 | 0.03 | 0.02 | 86 | 1008.7 |
| 20260506113040 | 63 | 214 | 0.0 | 3.0 | 0.00 | 0.03 | 0.02 | 86 | 1008.9 |
| 20260506111503 | 62 | 233 | 0.0 | 3.0 | 0.00 | 0.03 | 0.02 | 87 | 1009.1 |
| 20260506110018 | 62 | 234 | 0.0 | 0.0 | 0.00 | 0.03 | 0.02 | 86 | 1009.1 |
| 20260506104536 | 62 | 232 | 0.0 | 0.0 | 0.00 | 0.04 | 0.02 | 88 | 1009.3 |
| 20260506103002 | 61 | 226 | 0.0 | 5.0 | 0.00 | 0.04 | 0.02 | 90 | 1009.4 |
| 20260506101523 | 61 | 232 | 1.0 | 6.0 | 0.00 | 0.04 | 0.02 | 90 | 1009.6 |
| 20260506100036 | 61 | 199 | 0.0 | 0.0 | 0.00 | 0.04 | 0.02 | 91 | 1009.6 |
| 20260506094620 | 61 | 124 | 0.0 | 0.0 | 0.00 | 0.06 | 0.02 | 91 | 1009.6 |
| 20260506093101 | 61 | 0.0 | 0.0 | 0.00 | 0.06 | 0.02 | 90 | 1009.6 | |
| 20260506091516 | 61 | 124 | 0.0 | 0.0 | 0.00 | 0.06 | 0.02 | 90 | 1009.6 |
| 20260506090033 | 61 | 124 | 0.0 | 0.0 | 0.00 | 0.06 | 0.02 | 92 | 1009.5 |
| 20260506084549 | 60 | 124 | 0.0 | 0.0 | 0.00 | 0.06 | 0.02 | 93 | 1009.4 |
| 20260506083005 | 60 | 124 | 0.0 | 0.0 | 0.00 | 0.06 | 0.02 | 93 | 1009.2 |
| 20260506081522 | 60 | 113 | 0.0 | 0.0 | 0.00 | 0.06 | 0.02 | 94 | 1009.3 |
| 20260506073121 | 58 | 109 | 0.0 | 0.0 | 0.00 | 0.06 | 0.02 | 95 | 1009.4 |
| 20260506071557 | 58 | 114 | 0.0 | 0.0 | 0.00 | 0.06 | 0.02 | 95 | 1009.4 |
| 20260506061517 | 57 | 114 | 0.0 | 0.0 | 0.01 | 0.06 | 0.02 | 95 | 1009.3 |
| 20260506044615 | 55 | 114 | 0.0 | 0.0 | 0.01 | 0.05 | 0.02 | 95 | 1009.6 |
| 20260506043021 | 55 | 114 | 0.0 | 0.0 | 0.02 | 0.05 | 0.02 | 95 | 1009.5 |
| 20260506041541 | 55 | 120 | 0.0 | 0.0 | 0.02 | 0.05 | 0.02 | 95 | 1009.4 |
| 20260506040059 | 55 | 120 | 0.0 | 0.0 | 0.02 | 0.05 | 0.02 | 95 | 1009.3 |
| 20260506034525 | 55 | 120 | 0.0 | 0.0 | 0.01 | 0.04 | 0.01 | 95 | 1009.4 |
| 20260506033041 | 55 | 120 | 0.0 | 0.0 | 0.00 | 0.03 | 0.00 | 95 | 1009.6 |
| 20260506031559 | 55 | 119 | 0.0 | 0.0 | 0.00 | 0.03 | 0.00 | 95 | 1009.9 |
| 20260506030020 | 55 | 120 | 0.0 | 0.0 | 0.00 | 0.03 | 0.00 | 95 | 1009.8 |
| 20260506024541 | 55 | 119 | 0.0 | 0.0 | 0.00 | 0.03 | 0.00 | 95 | 1009.9 |
| 20260506023047 | 55 | 119 | 0.0 | 0.0 | 0.00 | 0.03 | 0.00 | 95 | 1010.2 |
| 20260506021522 | 55 | 120 | 0.0 | 0.0 | 0.00 | 0.03 | 0.00 | 94 | 1010.1 |
| 20260506020039 | 55 | 120 | 0.0 | 0.0 | 0.00 | 0.03 | 0.00 | 94 | 1010.2 |
| 20260506014558 | 55 | 119 | 0.0 | 0.0 | 0.00 | 0.03 | 0.00 | 94 | 1010.5 |
| 20260506013019 | 55 | 119 | 0.0 | 0.0 | 0.00 | 0.03 | 0.00 | 94 | 1010.4 |
| 20260506011537 | 55 | 120 | 0.0 | 0.0 | 0.00 | 0.03 | 0.00 | 94 | 1010.7 |
| 20260506010053 | 55 | 120 | 0.0 | 0.0 | 0.00 | 0.03 | 0.00 | 94 | 1010.6 |
| 20260506004508 | 55 | 120 | 0.0 | 0.0 | 0.00 | 0.03 | 0.00 | 93 | 1010.4 |
| 20260506003038 | 56 | 119 | 0.0 | 0.0 | 0.00 | 0.03 | 0.00 | 93 | 1010.8 |
| 20260506001607 | 56 | 119 | 0.0 | 0.0 | 0.00 | 0.03 | 0.00 | 93 | 1010.8 |
| 20260506000005 | 57 | 120 | 0.0 | 0.0 | 0.00 | 0.03 | 0.00 | 92 | 1010.9 |
| 20260505234535 | 57 | 119 | 0.0 | 0.0 | 0.00 | 0.03 | 0.00 | 92 | 1010.7 |
| 20260505233053 | 57 | 120 | 0.0 | 0.0 | 0.00 | 0.03 | 0.00 | 92 | 1010.8 |
| 20260505231506 | 57 | 120 | 0.0 | 0.0 | 0.00 | 0.03 | 0.00 | 92 | 1010.9 |
| 20260505230043 | 57 | 120 | 0.0 | 0.0 | 0.00 | 0.03 | 0.00 | 92 | 1011.1 |
| 20260505224542 | 57 | 119 | 0.0 | 0.0 | 0.00 | 0.03 | 0.00 | 92 | 1011.3 |
| 20260505223101 | 57 | 119 | 0.0 | 0.0 | 0.00 | 0.03 | 0.00 | 92 | 1011.3 |
| 20260505221511 | 57 | 115 | 0.0 | 0.0 | 0.00 | 0.03 | 0.00 | 92 | 1011.6 |
| 20260505220031 | 57 | 121 | 0.0 | 0.0 | 0.00 | 0.03 | 0.00 | 92 | 1011.5 |
| 20260505214540 | 57 | 119 | 0.0 | 1.0 | 0.00 | 0.03 | 0.03 | 92 | 1011.7 |
| 20260505213105 | 57 | 117 | 0.0 | 0.0 | 0.00 | 0.03 | 0.03 | 92 | 1011.9 |
| 20260505211551 | 57 | 106 | 0.0 | 0.0 | 0.00 | 0.03 | 0.03 | 92 | 1011.9 |
| 20260505210006 | 57 | 112 | 0.0 | 4.0 | 0.00 | 0.03 | 0.03 | 92 | 1011.9 |
| 20260505204523 | 57 | 152 | 0.0 | 6.0 | 0.00 | 0.03 | 0.03 | 92 | 1011.8 |
| 20260505203037 | 57 | 117 | 0.0 | 3.0 | 0.00 | 0.03 | 0.03 | 92 | 1011.9 |
| 20260505201601 | 57 | 102 | 0.0 | 5.0 | 0.00 | 0.03 | 0.03 | 93 | 1012.0 |
| 20260505200019 | 57 | 132 | 0.0 | 3.0 | 0.00 | 0.03 | 0.03 | 93 | 1011.9 |
| 20260505194528 | 57 | 114 | 0.0 | 3.0 | 0.00 | 0.03 | 0.03 | 93 | 1011.9 |
| 20260505193043 | 57 | 107 | 0.0 | 3.0 | 0.00 | 0.03 | 0.03 | 93 | 1012.0 |
| 20260505191625 | 57 | 111 | 0.0 | 0.0 | 0.00 | 0.03 | 0.03 | 93 | 1011.9 |
| 20260505190015 | 57 | 114 | 0.0 | 0.0 | 0.00 | 0.03 | 0.03 | 93 | 1011.9 |
| 20260505184528 | 57 | 134 | 0.0 | 0.0 | 0.00 | 0.03 | 0.03 | 93 | 1011.8 |
| 20260505183052 | 57 | 228 | 0.0 | 1.0 | 0.01 | 0.03 | 0.03 | 93 | 1011.7 |
| 20260505181507 | 57 | 96 | 0.0 | 1.0 | 0.01 | 0.03 | 0.03 | 93 | 1011.7 |
| 20260505180128 | 57 | 126 | 0.0 | 3.0 | 0.01 | 0.03 | 0.03 | 92 | 1011.6 |
| 20260505174505 | 57 | 118 | 0.0 | 0.0 | 0.01 | 0.03 | 0.03 | 92 | 1011.4 |